{"data":{"norad_id":60122,"intl_designator":"2024-118K","name":"STARLINK-11157 [DTC]","alt_names":[],"object_type":"PAYLOAD","status":"ACTIVE","operator":null,"country":"US","launch_date":"2024-06-24","launch_site_code":"AFWTR","launch_vehicle":null,"mission":null,"orbit_class":"UNKNOWN","rcs_meters":null,"size_class":null,"mass_kg":null,"dimensions":null,"purposes":["comms"],"wikipedia_slug":null,"has_3d_model":false,"image_url":null,"decayed_at":null,"tle_current":{"epoch":"2026-05-24T21:17:25.762272Z","epoch_age_seconds":78030,"freshness":"FRESH","line1":"1 60122U 24118K   26144.88710373 -.00000840  00000+0 -20757-5 0  9990","line2":"2 60122  53.1595 205.4382 0000940  73.8983 286.2139 15.69705959109968","mean_motion":15.69705959,"eccentricity":9.4e-5,"inclination_deg":53.1595,"raan_deg":205.4382,"arg_perigee_deg":73.8983,"mean_anomaly_deg":286.2139,"bstar":-2.0757e-6,"rev_number":10996,"period_min":91.736926380618,"perigee_km":359.10495396024,"apogee_km":360.37167451932,"semimajor_km":6737.8753142398,"source":"CELESTRAK","updated_at":"2026-05-25T13:38:19.167308Z"}}}